Weather History for KUKF - January, 2012

Change the Weather History Date:

Tuesday, January 3, 2012

  Actual Average Record
Temperature  
Mean Temperature 24 °F -  
Max Temperature 28 °F 48 °F 73 °F (2004)
Min Temperature 21 °F 25 °F 6 °F (1979)
Degree Days  
Heating Degree Days 40    
Moisture  
Dew Point 5 °F    
Average Humidity 44    
Maximum Humidity 58    
Minimum Humidity 34    
Precipitation  
Precipitation 0.00 in - - ()
Sea Level Pressure  
Sea Level Pressure 30.19 in    
Wind  
Wind Speed 10 mph (NNE)    
Max Wind Speed 14 mph    
Max Gust Speed 30 mph    
Visibility 10 miles    
Events      
Averages and records for this station are not official NWS values.
T = Trace of Precipitation, MM = Missing Value Source: NWS Daily Summary

Daily Weather History Graph

Daily Weather History Graph

Search for Another Location

Airport or City:

Trip Planner

Search our weather history database for the weather conditions in past years. The results will help you decide how hot, cold, wet, or windy it might be!

Date:

Astronomy

Jan. 03, 2012 Rise Set
Actual Time 7:35 AM EST 5:21 PM EST
Civil Twilight 7:07 AM EST 5:50 PM EST
Nautical Twilight 6:35 AM EST 6:22 PM EST
Astronomical Twilight 6:04 AM EST 6:53 PM EST
Moon 1:06 PM EST (1/3) 2:28 AM EST (1/3)
Length of Visible Light 10h 42m
Length of Day
9h 45m
Waxing Gibbous, 72% of the Moon is Illuminated
Jan 3
Waxing Gibbous
Jan 9
Full
Jan 16
Last Quarter
Jan 23
New
Jan 30
First Quarter

Hourly Weather History & Observations

Time (EST) Temp. Windchill Dew Point Humidity Pressure Visibility Wind Dir Wind Speed Gust Speed Precip Events Conditions
12:15 AM 23.0 °F - 6.8 °F 50% 30.09 in 10.0 mi North - - N/A   Clear
12:35 AM 21.2 °F - 6.8 °F 54% 30.09 in 10.0 mi North - - N/A   Clear
12:55 AM 21.2 °F - 6.8 °F 54% 30.09 in 10.0 mi North - - N/A   Clear
1:15 AM 21.2 °F - 5.0 °F 50% 30.08 in 10.0 mi North - - N/A   Clear
1:35 AM 21.2 °F - 5.0 °F 50% 30.09 in 10.0 mi North - - N/A   Clear
1:55 AM 21.2 °F - 5.0 °F 50% 30.09 in 10.0 mi North - - N/A   Clear
2:15 AM 21.2 °F - 5.0 °F 50% 30.10 in 10.0 mi North - - N/A   Clear
2:35 AM 21.2 °F - 6.8 °F 54% 30.09 in 10.0 mi North - - N/A   Clear
2:55 AM 21.2 °F - 6.8 °F 54% 30.10 in 10.0 mi North - - N/A   Clear
3:15 AM 21.2 °F - 6.8 °F 54% 30.11 in 10.0 mi North - - N/A   Scattered Clouds
3:35 AM 21.2 °F - 6.8 °F 54% 30.11 in 10.0 mi North - - N/A   Scattered Clouds
3:55 AM 21.2 °F - 6.8 °F 54% 30.11 in - North - - N/A   Mostly Cloudy
4:35 AM 21.2 °F - 6.8 °F 54% 30.12 in 10.0 mi North - - N/A   Scattered Clouds
4:55 AM 23.0 °F - 6.8 °F 50% 30.12 in 10.0 mi North - - N/A   Mostly Cloudy
5:15 AM 21.2 °F - 6.8 °F 54% 30.12 in 10.0 mi North - - N/A   Scattered Clouds
5:35 AM 23.0 °F - 6.8 °F 50% 30.14 in 10.0 mi North - - N/A   Mostly Cloudy
5:55 AM 21.2 °F - 6.8 °F 54% 30.14 in 10.0 mi North - - N/A   Mostly Cloudy
6:15 AM 23.0 °F - 6.8 °F 50% 30.15 in 10.0 mi North - - N/A   Overcast
6:35 AM 23.0 °F - 6.8 °F 50% 30.16 in 10.0 mi North - - N/A   Overcast
6:55 AM 21.2 °F - 8.6 °F 58% 30.17 in 10.0 mi North - - N/A   Overcast
7:15 AM 23.0 °F - 8.6 °F 54% 30.17 in 10.0 mi North - - N/A   Overcast
7:35 AM 23.0 °F - 6.8 °F 50% 30.18 in 10.0 mi North - - N/A   Overcast
7:55 AM 23.0 °F - 6.8 °F 50% 30.19 in 10.0 mi North - - N/A   Overcast
8:15 AM 23.0 °F - 8.6 °F 54% 30.20 in 10.0 mi North - - N/A   Overcast
8:35 AM 23.0 °F - 6.8 °F 50% 30.20 in 10.0 mi North - - N/A   Overcast
8:55 AM 24.8 °F - 6.8 °F 46% 30.21 in 10.0 mi North - - N/A   Overcast
9:15 AM 24.8 °F - 6.8 °F 46% 30.21 in 10.0 mi North - - N/A   Overcast
9:35 AM 26.6 °F - 6.8 °F 43% 30.22 in 10.0 mi North - - N/A   Overcast
9:55 AM 26.6 °F - 5.0 °F 40% 30.22 in 10.0 mi North - - N/A   Overcast
10:15 AM 26.6 °F - 5.0 °F 40% 30.23 in 10.0 mi North - - N/A   Mostly Cloudy
10:35 AM 28.4 °F - 6.8 °F 40% 30.23 in 10.0 mi North - - N/A   Overcast
10:55 AM 26.6 °F 18.2 °F 5.0 °F 40% 30.22 in 10.0 mi NNE 8.1 mph 21.9 mph N/A   Scattered Clouds
11:15 AM 28.4 °F - 5.0 °F 37% 30.22 in 10.0 mi North - - N/A   Scattered Clouds
11:35 AM 28.4 °F - 5.0 °F 37% 30.22 in 10.0 mi North - - N/A   Scattered Clouds
11:55 AM 26.6 °F 15.2 °F 3.2 °F 37% 30.21 in 10.0 mi NNE 13.8 mph 29.9 mph N/A   Scattered Clouds
12:15 PM 28.4 °F 18.0 °F 3.2 °F 34% 30.21 in 10.0 mi NNE 12.7 mph 27.6 mph N/A   Mostly Cloudy
12:35 PM 28.4 °F - 5.0 °F 37% 30.20 in 10.0 mi North - - N/A   Mostly Cloudy
12:55 PM 26.6 °F - 3.2 °F 37% 30.19 in 10.0 mi North - - N/A   Mostly Cloudy
1:15 PM 28.4 °F - 3.2 °F 34% 30.18 in 10.0 mi North - - N/A   Scattered Clouds
1:35 PM 28.4 °F 18.0 °F 3.2 °F 34% 30.18 in 10.0 mi NNE 12.7 mph 16.1 mph N/A   Clear
1:55 PM 28.4 °F - 3.2 °F 34% 30.17 in 10.0 mi North - - N/A   Clear
2:15 PM 28.4 °F - 3.2 °F 34% 30.18 in 10.0 mi North - - N/A   Clear
2:35 PM 28.4 °F - 3.2 °F 34% 30.18 in 10.0 mi North - - N/A   Clear
2:55 PM 28.4 °F - 3.2 °F 34% 30.18 in 10.0 mi North - - N/A   Clear
3:15 PM 28.4 °F - 3.2 °F 34% 30.19 in 10.0 mi North - - N/A   Clear
3:55 PM 28.4 °F - 3.2 °F 34% 30.19 in 10.0 mi North - - N/A   Clear
4:15 PM 28.4 °F 17.5 °F 3.2 °F 34% 30.19 in 10.0 mi NNE 13.8 mph 18.4 mph N/A   Clear
4:35 PM 28.4 °F - 3.2 °F 34% 30.19 in 10.0 mi North - - N/A   Clear
4:55 PM 28.4 °F - 3.2 °F 34% 30.20 in 10.0 mi North - - N/A   Clear
5:15 PM 26.6 °F - 3.2 °F 37% 30.21 in 10.0 mi North - - N/A   Clear
5:35 PM 26.6 °F - 3.2 °F 37% 30.22 in 10.0 mi North - - N/A   Clear
5:55 PM 26.6 °F - 3.2 °F 37% 30.23 in 10.0 mi North - - N/A   Clear
6:15 PM 24.8 °F - 3.2 °F 40% 30.23 in 10.0 mi North - - N/A   Clear
6:35 PM 24.8 °F - 3.2 °F 40% 30.24 in 10.0 mi North - - N/A   Clear
6:55 PM 24.8 °F - 3.2 °F 40% 30.24 in 10.0 mi North - - N/A   Clear
7:15 PM 24.8 °F - 3.2 °F 40% 30.26 in 10.0 mi North - - N/A   Clear
7:35 PM 24.8 °F - 3.2 °F 40% 30.27 in 10.0 mi North - - N/A   Clear
7:55 PM 23.0 °F - 5.0 °F 46% 30.27 in 10.0 mi Calm Calm - N/A   Clear
8:15 PM 23.0 °F - 5.0 °F 46% 30.28 in 10.0 mi North - - N/A   Clear
8:35 PM 24.8 °F - 3.2 °F 40% 30.28 in 10.0 mi North - - N/A   Clear
8:55 PM 23.0 °F - 5.0 °F 46% 30.29 in 10.0 mi North - - N/A   Clear
9:15 PM 23.0 °F - 6.8 °F 50% 30.28 in 10.0 mi North - - N/A   Clear
9:35 PM 24.8 °F - 5.0 °F 43% 30.29 in 10.0 mi North - - N/A   Clear
9:55 PM 21.2 °F - 6.8 °F 54% 30.29 in 10.0 mi North - - N/A   Clear
10:15 PM 21.2 °F - 6.8 °F 54% 30.30 in 10.0 mi North - - N/A   Clear
10:35 PM 21.2 °F - 6.8 °F 54% 30.30 in 10.0 mi North - - N/A   Clear
10:55 PM 21.2 °F - 6.8 °F 54% 30.29 in 10.0 mi North - - N/A   Clear
11:15 PM 19.4 °F - 6.8 °F 58% 30.29 in 10.0 mi North - - N/A   Clear
11:35 PM 19.4 °F - 8.6 °F 63% 30.29 in 10.0 mi North - - N/A   Clear
11:55 PM 19.4 °F - 8.6 °F 63% 30.28 in 10.0 mi North - - N/A   Clear